User: anonymous   Login
Location: Asheville, NC
(35.6000°N, 82.5500°W)
Time: 14:09:21
(UTC-05:00)
Language:

RS-15 - Orbit

View from above orbital plane
View from above orbital plane
View from above satellite
View from above satellite

Ground track
Ground track

The orbit data is extracted from the following two-line orbital elements,

1 23439U 94085A   18018.61115001 -.00000029 +00000-0 +38924-3 0  9991
2 23439 064.8134 230.7441 0162024 208.5604 183.0736 11.27566562949708
Epoch (UTC): 18 January 2018 14:40:03
Eccentricity: 0.0162024
inclination: 64.8134°
perigee height: 1886 km
apogee height: 2158 km
right ascension of ascending node: 230.7441°
argument of perigee: 208.5604°
revolutions per day: 11.27566562
mean anomaly at epoch: 183.0736°
orbit number at epoch: 94970

The dashed part of the orbit path shows where the satellite is in the earth's shadow,  

DLR